Torna al catalogo

THOR ABLESTAR DEB

AttivoLEO
NORAD 13512·DEBRIS·🇺🇸 United States

Lanciato Jun 29, 1961 da Cape Canaveral Space Force Station

Loading…

Prossimi Passaggi (prossime 24 ore)

TLE

AggiornatoSource: Space-Track

Epoca: Sep 13, 2026, 17:14 UTC

1 13512U 61015KV  26256.71860304  .00006501  00000-0  14873-2 0  9992
2 13512  65.4638  95.2598 0038123 250.9660 185.2454 14.55864696355577

Traccia THOR ABLESTAR DEB in tempo reale con AllMySat

Download on the App Store